Flag for United Kingdom Weather past 2 weeks in Liverpool, England, United Kingdom

Now
52 °F

Clear.


Feels Like: 51 °F
Forecast: 57 / 68 °F
Wind: 5 mph from Northeast

Location: Liverpool Airport

Current Time: Sep 15, 2014 at 3:52:58 AM

Latest Report: Sep 15, 2014 at 3:20 AM


Visibility: 10 mi

Pressure: 30.15 "Hg

Humidity: 94%

Dew point: 50 °F

Location of LiverpoolLocation

Historic Weather in Liverpool — Graph

°F

Liverpool temperature yesterday

Maximum temperature yesterday: 66 °F (at 1:50 PM)
Minimum temperature yesterday: 50 °F (at 4:20 AM)
Average temperature yesterday: 58 °F

Past Weeks' High & Low Weather Summary

 TemperatureHumidityPressure
High70 °F (Sep 3, 3:50 PM)100% (Sep 1, 5:50 AM)30.36 "Hg (Sep 1, 5:50 AM)
Low48 °F (Sep 10, 5:50 AM)53% (Sep 2, 2:20 PM)29.95 "Hg (Sep 6, 3:50 AM)
Average60 °F77%30.15 "Hg
* Reported Aug 31 2:20 AM — Sep 15 2:20 AM, Liverpool, Weather by CustomWeather, © 2014

Note: Actual official high and low records may vary slightly from our data, if they occured in-between our weather recording intervals... More about our weather records

Advertising

Liverpool weather history for previous 24 hours

 ConditionsComfort  
Time TempWeatherWind HumidityBarometerVisibility
2:20 AM
Sep 15
54 °FClear.6 mph88%30.18 "Hg10 mi
1:50 AM54 °FClear.5 mph88%30.18 "Hg10 mi
1:20 AM54 °FClear.5 mph88%30.18 "Hg10 mi
12:50 AM54 °FClear.6 mph88%30.18 "Hg10 mi
12:20 AM54 °FClear.7 mph88%30.18 "Hg10 mi
11:50 PM
Sep 14
55 °FClear.5 mph82%30.18 "Hg10 mi
11:20 PM55 °FClear.3 mph82%30.18 "Hg10 mi
10:50 PM55 °FClear.9 mph82%30.18 "Hg10 mi
10:20 PM55 °FClear.8 mph82%30.21 "Hg10 mi
9:50 PM57 °FClear.9 mph77%30.21 "Hg10 mi
9:20 PM57 °FClear.7 mph77%30.21 "Hg10 mi
8:50 PM59 °FClear.12 mph72%30.21 "Hg10 mi
8:20 PM59 °FPassing clouds.10 mph77%30.21 "HgN/A
7:50 PM59 °FPassing clouds.9 mph72%30.18 "HgN/A
7:20 PM61 °FPassing clouds.12 mph72%30.18 "HgN/A
6:50 PM63 °FPassing clouds.16 mph68%30.18 "HgN/A
6:20 PM63 °FPassing clouds.16 mph68%30.18 "HgN/A
5:50 PM64 °FPassing clouds.16 mph68%30.18 "HgN/A
5:20 PM64 °FPassing clouds.17 mph68%30.18 "HgN/A
4:20 PM66 °FPassing clouds.18 mph64%30.21 "HgN/A
3:50 PM66 °FPassing clouds.18 mph60%30.21 "HgN/A
3:20 PM64 °FScattered clouds.17 mph64%30.21 "HgN/A
2:50 PM66 °FScattered clouds.15 mph60%30.21 "HgN/A
2:20 PM64 °FScattered clouds.13 mph64%30.24 "HgN/A
1:50 PM66 °FScattered clouds.14 mph60%30.24 "HgN/A
1:20 PM64 °FScattered clouds.13 mph64%30.24 "HgN/A
12:50 PM64 °FPartly sunny.14 mph64%30.27 "HgN/A
12:20 PM64 °FScattered clouds.12 mph60%30.27 "HgN/A
11:50 AM64 °FScattered clouds.15 mph64%30.27 "HgN/A
11:20 AM61 °FPartly sunny.14 mph72%30.27 "HgN/A
10:50 AM59 °FPartly sunny.15 mph77%30.30 "HgN/A
10:20 AM59 °FPartly sunny.15 mph77%30.30 "HgN/A
9:50 AM57 °FPartly sunny.13 mph77%30.30 "Hg6 mi
9:20 AM57 °FPartly sunny.12 mph77%30.30 "Hg6 mi
8:50 AM55 °FPartly sunny.10 mph82%30.30 "Hg6 mi
8:20 AM55 °FPartly sunny.12 mph82%30.30 "Hg6 mi
7:50 AM54 °FPartly sunny.12 mph88%30.30 "Hg6 mi
7:20 AM54 °FPassing clouds.7 mph88%30.30 "Hg6 mi
6:50 AM52 °FPassing clouds.6 mph88%30.30 "Hg6 mi
6:20 AM52 °FPassing clouds.7 mph94%30.30 "Hg6 mi
5:50 AM50 °FPassing clouds.6 mph88%30.30 "HgN/A
5:20 AM50 °FPassing clouds.6 mph88%30.30 "HgN/A
4:50 AM50 °FPassing clouds.7 mph88%30.33 "HgN/A
4:20 AM50 °FPassing clouds.9 mph88%30.33 "HgN/A
3:50 AM52 °FPassing clouds.9 mph82%30.33 "HgN/A
3:20 AM52 °FPassing clouds.7 mph82%30.33 "HgN/A
Weather by CustomWeather, © 2014

See weather overviewHow to use our weather pages